Miscellaneous Local Product
Issued by NWS Hastings, NE

Home | Current Version | Previous Version | Text Only | Print | Product List | Glossary Off
Versions: 1 2 3 4 5 6 7 8 9 10 11 12 13 14 15 16 17 18 19 20 21 22 23 24 25 26 27 28 29 30 31 32 33 34 35 36 37 38 39 40 41 42 43 44 45 46 47 48 49 50

995
AXUS43 KGID 291802
MISGRI

GID CWA HOURLY WEATHER ROUNDUP
NATIONAL WEATHER SERVICE HASTINGS NE
100 PM CDT FRI APR 29 2016

NOTE: "FAIR" INDICATES FEW OR NO CLOUDS BELOW 12,000 FEET WITH NO
SIGNIFICANT WEATHER AND/OR OBSTRUCTIONS TO VISIBILITY.

...SOUTH CENTRAL NEBRASKA...

CITY           SKY/WX    TMP DP  RH WIND       PRES   REMARKS
GRAND ISLAND   CLOUDY    45  38  76 NE9       30.05F
HASTINGS       CLOUDY    44  38  79 NE16      30.03F
KEARNEY        CLOUDY    43  37  81 NE16      30.04F
ORD            CLOUDY    43  39  86 E10       30.06F
YORK           CLOUDY    45  39  81 E10       30.06S
AURORA         CLOUDY    45  40  81 E12       30.05S
LEXINGTON      CLOUDY    43  38  83 E15       30.05S
HOLDREGE       CLOUDY    43  38  82 NE14      30.04F
HEBRON         CLOUDY    46  39  78 NE12G17   30.02F

...NEBRASKA PANHANDLE...

CITY           SKY/WX    TMP DP  RH WIND       PRES   REMARKS
CHADRON        CLOUDY    44  36  73 NE9       30.05R
ALLIANCE       CLOUDY    43  36  76 NE16      30.01S
SCOTTSBLUFF    CLOUDY    43  34  70 E5        30.01S
SIDNEY         CLOUDY    42  34  73 NE13      29.99F

...WESTERN AND NORTH CENTRAL NEBRASKA...

CITY           SKY/WX    TMP DP  RH WIND       PRES   REMARKS
VALENTINE      CLOUDY    41  36  82 E15       30.08R
AINSWORTH      CLOUDY    40  38  93 E8        30.09R FOG     WCI  35
ONEILL         CLOUDY    41  39  93 E10       30.11R FOG
BROKEN BOW     CLOUDY    43  38  82 E13       30.05F
IMPERIAL       LGT RAIN  41  36  82 E18       30.00F
NORTH PLATTE   CLOUDY    42  36  79 NE14      30.03F
MCCOOK         LGT RAIN  43  37  79 E17       30.02S

...EASTERN NEBRASKA...

CITY           SKY/WX    TMP DP  RH WIND       PRES   REMARKS
NORFOLK        CLOUDY    43  38  82 E9        30.07F
SO SIOUX CITY  CLOUDY    47  39  74 E8        30.11F
TEKAMAH        CLOUDY    47  43  86 NE13      30.08F
COLUMBUS       CLOUDY    45  36  70 NE9       30.09R
ALBION         CLOUDY    44  39  83 E6        30.08S FOG
OMAHA EPPLEY   CLOUDY    48  40  73 NE9       30.08S
OFFUTT AFB     CLOUDY    48  41  77 NE10      30.06F
MILLARD        CLOUDY    48  40  73 E5        30.07F
LINCOLN        CLOUDY    48  39  71 NE10      30.07F
NEBRASKA CITY  CLOUDY    48  41  76 NE12      30.06F
BEATRICE       CLOUDY    45  41  85 NE13      30.03F
FALLS CITY     CLOUDY    50  44  80 E12       30.05R

...NORTHERN KANSAS...

CITY           SKY/WX    TMP DP  RH WIND       PRES   REMARKS
GOODLAND       LGT RAIN  38  36  92 E23G31    29.93S WCI  27
HILL CITY      LGT RAIN  42  40  92 E13       30.00F
NORTON         DRIZZLE   41  36  81 NE16G23   29.99F
PHILLIPSBURG   LGT RAIN  45  39  81 N8G17     30.00F
SMITH CENTER   DRIZZLE   41  39  93 N14       30.00F
BELOIT         CLOUDY    43  39  87 NE13      29.99F
HAYS           CLOUDY    43  34  70 N13       29.96F
RUSSELL        RAIN      43  42  97 NE20      29.92F FOG
CONCORDIA      CLOUDY    46  39  76 E15G23    29.99S
SALINA         HVY RAIN  46  44  93 NE13      29.96F FOG
TOPEKA         CLOUDY    53  45  74 NE10      29.99F



USA.gov is the U.S. government's official web portal to all federal, state and local government web resources and services.